Location: Bukit Nyuki
(2.5885°N, 113.7476°E)
Time: 04:34:01
(UTC+00:00)

Cosmos 836 Rocket - Pass Details

Date: 18 May 2021
Orbit: 757 x 778 km, 74.1° (Epoch: 22 June)

Event Time Altitude Azimuth Distance (km) Brightness Sun altitude
Rises 12:05:47 0° 349° (N) 3,230 8.2 -23.5°
Reaches altitude 10° 12:08:09 10° 350° (N) 2,303 7.4 -24.0°
Maximum altitude 12:13:23 84° 77° (ENE) 774 4.3 -25.2°
Enters shadow 12:13:52 74° 146° (SE) 798 4.3 -25.3°
